Dewpoint
50 51 51 50 51 51 51 51 52 52 53 52 52 52 52 52 53 53 54 54 54 55 54 52 53 52 45 37 36 40 42 42 40 39 33 31 27 26 23 24 27 25 28 29 29 28 28
50 49 50 50 50 50 50 51 51 52 52 52 51 51 51 52 53 53 53 53 54 54 53 52 52 50 38 26 40 39 39 38 38 37 34 33 30 29 26 28 27 29 28 28 28 28 27
50 49 49 50 50 50 50 51 50 51 52 51 51 51 51 51 52 53 53 52 53 53 52 50 51 44 34 35 40 38 36 36 36 36 34 35 33 29 28 26 28 29 27 28 28 27 28
51 50 49 49 49 50 50 50 50 50 51 51 51 50 50 51 52 53 52 52 51 50 48 47 49 40 30 39 38 36 35 34 34 36 35 33 33 28 27 29 25 23 24 20 26 28 29
52 52 50 49 48 49 50 49 50 50 50 50 50 50 50 51 51 52 50 49 48 46 44 46 37 35 31 36 34 35 35 35 36 34 33 30 29 25 24 19 15 18 9 15 24 28 28
51 53 52 51 49 48 50 49 49 49 50 50 50 49 49 50 51 51 48 45 43 40 40 36 28 29 30 30 33 34 35 35 32 30 32 28 24 21 21 17 8 11 11 10 20 27 27
53 53 53 52 51 49 49 50 49 49 49 49 49 49 49 50 50 49 43 36 32 33 31 29 29 28 31 33 35 33 34 34 32 27 25 24 17 12 16 16 13 9 7 6 22 27 26
55 54 53 53 52 50 50 49 49 49 49 49 49 48 49 50 48 47 45 35 39 40 28 31 29 31 32 33 29 31 31 30 27 22 20 17 17 22 23 20 16 15 13 12 20 24 25
55 55 54 53 53 52 51 49 49 49 48 48 48 48 49 48 46 40 38 40 44 42 31 29 31 29 31 33 29 30 30 30 26 21 19 19 22 23 21 19 15 16 15 15 14 18 18
56 56 55 54 54 53 52 50 49 48 48 48 47 47 48 44 38 31 35 43 45 45 21 25 30 28 30 31 30 31 26 30 23 20 19 19 23 22 21 19 18 14 17 13 11 9 0
57 56 56 55 55 54 53 51 50 48 48 47 47 47 47 45 36 33 39 44 44 39 7 28 27 31 27 29 30 31 28 27 21 22 16 14 18 18 18 19 17 15 18 15 15 14 14
58 57 56 56 55 55 54 52 50 48 48 47 46 46 45 34 38 40 44 45 42 24 5 20 27 24 21 23 23 25 24 22 22 18 19 19 22 22 21 22 21 21 16 17 17 16 11
59 58 57 56 56 55 54 53 51 48 48 46 45 45 43 36 33 42 43 39 21 10 17 18 19 21 20 19 19 19 20 17 13 9 12 16 18 22 23 18 22 18 13 4 11 13 10
59 58 58 57 56 56 55 53 52 49 47 45 44 44 38 40 43 43 39 21 10 20 13 22 21 20 16 17 16 18 18 13 18 14 11 10 8 20 21 21 20 18 15 6 5 11 12
59 59 58 58 57 57 55 54 52 49 46 44 43 39 37 37 39 39 28 10 12 22 17 18 19 15 16 17 16 13 14 16 18 15 4 9 10 16 15 16 16 18 15 17 12 12 6
57 58 58 58 58 57 56 55 53 49 45 43 31 32 34 37 40 35 21 12 19 21 20 20 11 15 13 14 10 12 12 16 17 17 16 11 6 13 15 13 14 16 16 10 10 2 3
55 56 57 58 58 57 57 56 54 50 43 41 32 21 32 38 37 28 4 12 19 25 25 18 15 12 9 11 9 10 10 16 17 15 15 13 6 7 9 10 10 13 12 11 10 9 3
54 55 55 58 58 57 57 56 54 49 45 34 32 18 34 37 15 19 11 17 21 22 25 24 20 17 12 9 9 9 8 15 17 15 9 13 8 4 4 3 3 6 9 10 3 2 6
54 54 54 56 57 57 56 55 53 49 44 36 29 28 34 34 11 18 19 19 23 21 22 22 20 21 19 12 10 12 16 19 17 15 12 11 6 3 6 6 5 2 2 4 8 8 3
52 51 52 52 53 55 56 55 52 48 44 38 33 29 31 28 26 22 19 18 16 24 23 23 22 21 18 15 16 15 18 15 15 16 18 15 9 6 8 9 10 6 5 4 3 5 8
49 49 48 48 50 51 56 54 51 48 43 39 34 31 32 26 21 17 21 22 20 17 22 21 19 18 16 13 15 16 19 17 16 20 15 13 8 10 10 11 12 10 8 7 5 7 8
47 46 46 47 47 49 54 53 50 47 44 40 35 34 33 23 20 20 21 19 20 19 19 17 18 18 19 14 15 14 17 16 14 17 14 12 7 11 10 11 10 8 10 11 9 8 5
47 47 47 46 47 49 51 53 50 46 44 39 37 34 36 32 30 20 19 21 19 18 18 17 18 17 18 17 13 12 14 14 15 14 15 11 10 9 8 4 2 5 4 3 4 8 5
48 47 47 47 48 47 48 53 50 46 45 41 38 36 33 33 30 29 24 22 24 19 18 14 14 15 12 10 9 7 8 9 11 10 13 13 11 8 6 3 6 9 11 12 9 12 10
49 48 48 48 48 47 48 49 50 47 45 41 39 39 37 33 32 28 21 19 20 19 17 14 15 14 11 8 4 1 2 3 7 9 9 9 9 5 5 2 5 8 8 5 1 2 11
46 48 48 49 49 48 47 48 50 48 46 40 39 41 40 35 33 32 29 28 28 21 15 17 17 14 10 6 5 4 6 4 4 7 9 8 10 7 4 2 5 4 8 10 7 -6 10
45 46 47 49 49 48 47 47 48 49 45 40 37 39 38 36 31 30 32 30 32 29 24 16 14 11 13 5 3 5 9 4 7 6 4 6 6 5 5 3 3 8 7 11 -5 -6 10
45 47 48 47 47 47 47 48 47 50 45 39 34 36 36 32 26 28 28 28 29 30 25 21 22 19 11 10 10 11 14 7 5 6 5 5 3 3 5 3 1 8 8 3 4 10 8
45 45 47 47 49 49 50 49 49 48 41 36 33 33 31 29 24 27 28 28 29 30 29 26 25 14 14 15 16 12 5 3 2 3 7 3 6 5 5 5 10 9 8 9 8 7 6
Wind_Speed
7 8 9 10 10 11 11 11 12 12 12 13 13 13 14 14 13 12 12 11 8 6 7 7 8 9 1 4 2 6 11 13 9 9 6 5 6 3 3 5 5 7 4 8 13 18 13
8 9 9 10 11 11 12 12 12 13 12 12 13 14 14 14 14 14 13 12 9 6 6 6 7 7 2 1 4 7 8 7 11 8 6 7 3 2 5 5 5 5 10 10 5 6 6
5 8 10 11 11 12 13 14 13 13 13 13 13 13 13 14 15 15 14 12 9 7 5 6 6 2 6 3 5 9 8 2 4 6 2 4 5 4 2 5 3 14 8 5 6 7 4
2 6 9 11 12 12 12 13 14 14 14 14 14 14 14 14 14 14 14 12 8 7 7 6 5 2 3 2 4 6 9 3 5 3 2 4 5 3 3 5 4 2 5 2 7 12 7
4 5 7 10 12 13 13 13 14 14 14 15 15 15 15 15 15 14 14 11 7 8 7 6 2 3 1 0 1 4 3 2 7 1 2 3 2 3 3 6 3 2 3 8 5 15 8
10 6 6 7 10 12 13 14 15 15 16 15 15 16 15 15 16 15 13 5 5 7 2 2 3 2 1 1 2 4 3 3 2 3 2 2 3 3 2 4 5 3 5 3 8 12 10
11 9 7 7 8 10 12 13 14 15 16 17 17 17 17 16 16 12 7 2 2 3 8 3 2 2 2 1 1 2 3 4 0 1 3 1 3 6 6 7 5 2 3 5 1 8 10
10 11 9 8 8 8 10 11 13 15 16 17 18 19 18 18 17 11 1 4 4 1 1 0 1 3 2 1 1 4 9 0 2 3 3 2 4 2 3 3 2 1 3 5 2 3 7
12 12 12 11 10 7 8 9 12 14 16 17 18 19 19 19 16 5 6 4 1 1 1 1 1 2 1 1 1 3 5 1 1 5 6 3 3 2 2 2 3 2 3 3 1 3 8
13 14 13 12 12 10 7 8 9 11 13 16 18 19 19 22 2 2 2 1 1 1 1 3 2 1 1 1 1 1 2 1 1 4 2 1 1 2 2 1 2 3 2 2 2 2 6
15 15 15 15 13 12 10 8 8 9 12 14 16 18 17 10 4 1 0 1 2 1 4 5 4 0 2 2 3 2 1 1 4 3 3 3 2 2 2 1 1 3 1 1 1 3 3
17 17 17 16 15 13 12 10 7 8 10 12 14 16 18 3 2 0 3 3 2 2 7 5 4 4 3 3 2 2 0 1 1 2 2 2 1 1 3 2 2 3 1 1 2 2 7
20 19 18 17 16 15 13 11 9 7 7 10 13 14 9 4 1 1 1 1 2 6 1 5 5 5 4 5 4 4 3 3 5 4 4 3 2 2 2 3 1 1 2 4 3 3 9
20 20 20 19 18 17 15 12 9 8 7 9 11 12 4 1 1 1 2 1 7 3 6 3 4 5 5 7 3 4 4 5 3 2 4 7 6 7 2 2 4 6 4 5 7 5 4
19 22 21 20 19 17 17 14 10 7 5 8 12 1 2 4 3 2 3 5 6 4 4 9 4 5 5 4 3 5 6 4 3 4 8 7 4 1 3 1 1 4 6 2 3 3 6
15 16 21 22 23 20 19 15 11 6 3 7 4 3 5 6 5 3 3 6 5 2 2 4 7 7 6 6 6 7 7 2 4 2 3 1 4 1 0 1 1 2 1 3 1 5 8
14 17 18 22 22 22 20 17 12 6 1 4 2 3 3 6 4 2 7 8 3 1 2 5 4 5 4 6 8 5 3 1 2 2 2 1 2 0 1 6 7 4 4 3 2 5 5
10 11 16 16 20 20 21 18 15 11 5 4 2 5 5 5 6 5 8 5 4 4 1 2 2 2 3 6 6 5 6 2 1 6 6 3 4 6 9 2 0 2 6 10 9 6 7
9 10 10 11 12 13 17 18 18 16 12 7 2 5 1 2 9 10 3 4 4 6 6 6 6 3 2 6 5 6 5 2 1 4 7 6 4 3 3 1 1 5 6 5 5 3 16
9 9 9 7 8 10 15 17 21 20 18 8 4 3 3 4 4 5 9 7 8 2 4 4 5 4 4 7 3 5 6 3 1 1 2 0 5 9 16 3 6 6 9 10 11 11 15
10 9 7 6 7 11 10 20 25 24 21 7 5 6 5 6 12 14 11 10 11 9 4 6 3 9 9 8 6 7 5 4 1 3 2 3 7 7 11 10 6 10 13 17 21 20 21
11 8 5 6 7 7 6 17 25 26 23 4 9 4 1 6 9 16 12 11 15 7 13 8 9 12 13 8 10 11 12 8 6 6 7 3 4 2 7 13 7 10 16 20 25 14 15
11 9 7 4 5 7 4 20 25 28 10 5 3 2 3 3 4 4 6 15 17 12 5 3 15 8 14 10 7 8 7 7 10 10 14 8 7 3 7 3 8 16 21 17 4 3 6
13 11 9 8 5 6 8 13 30 31 9 6 5 6 6 5 8 11 7 4 8 10 6 4 3 9 7 16 14 10 12 9 6 7 3 8 7 4 5 2 10 3 2 2 4 2 7
8 12 12 11 7 6 6 5 28 33 16 5 6 7 7 4 6 7 6 3 9 5 3 3 3 2 13 5 5 2 2 1 2 4 2 2 7 4 5 8 9 4 5 6 7 5 5
13 11 13 14 10 8 5 6 17 30 21 6 5 4 4 6 8 3 5 4 5 4 1 2 3 4 4 3 5 8 9 6 5 2 2 3 4 9 5 6 8 2 4 3 4 9 9
13 13 15 14 11 9 9 7 8 28 21 5 5 2 4 7 3 4 6 6 7 6 4 4 4 2 3 4 5 7 7 4 7 8 7 6 4 18 15 9 10 5 9 4 3 2 12
13 14 12 12 14 14 12 10 11 26 23 7 4 3 2 5 3 2 3 4 4 6 8 7 6 1 2 9 8 7 8 10 5 7 8 12 13 9 7 7 14 13 7 7 5 7 14
9 13 15 15 17 16 12 11 11 27 19 8 5 5 6 8 4 3 4 3 2 3 6 11 3 6 11 8 8 3 2 3 4 6 2 7 7 6 12 7 1 12 2 6 7 12 8
Wind_Direction
12 8 12 10 8 9 7 8 1 4 359 358 358 358 359 354 345 342 340 333 332 338 340 343 343 349 28 66 81 329 338 341 348 348 14 357 38 27 87 92 68 102 106 63 95 92 85
3 359 359 360 2 2 1 3 2 355 355 358 356 358 356 350 343 340 338 333 327 325 326 327 340 334 34 123 279 329 326 351 4 20 25 31 35 17 78 73 71 114 110 117 91 88 105
357 349 348 352 356 357 357 356 357 352 349 353 351 355 353 350 343 339 336 331 323 310 307 319 343 355 67 141 320 325 343 310 358 15 48 13 350 53 47 106 58 125 111 121 150 150 136
345 341 340 341 344 347 351 353 352 351 347 346 347 349 346 350 340 335 330 324 311 300 307 320 336 43 83 233 310 360 355 58 9 26 36 314 350 72 65 113 73 136 122 193 192 167 170
292 316 327 333 333 338 343 348 348 346 346 345 344 346 342 342 336 330 325 312 296 302 296 308 24 105 67 154 355 326 354 351 312 314 337 305 31 94 93 118 98 208 231 212 177 188 154
268 270 298 315 322 330 337 343 343 343 342 344 341 338 338 337 331 329 319 286 293 330 272 286 288 70 208 216 327 321 327 305 9 341 33 69 69 108 116 152 187 203 231 251 205 194 179
262 265 265 288 309 320 328 336 338 340 341 342 339 337 335 334 328 331 345 350 37 21 38 64 13 110 83 31 41 31 343 347 264 40 133 107 129 183 220 199 190 197 258 285 215 183 177
259 257 260 267 278 300 317 327 334 337 339 340 338 335 334 332 327 322 288 78 124 149 64 312 104 82 65 28 140 356 4 107 157 143 136 73 177 182 145 125 133 78 276 273 82 148 208
254 256 258 262 266 274 298 316 328 334 336 338 336 335 333 332 331 353 75 101 345 8 110 196 183 105 174 22 62 322 355 334 165 159 176 169 181 189 187 151 169 213 241 290 232 196 246
239 253 254 248 263 268 274 297 314 325 333 336 335 334 332 329 355 331 67 109 341 309 306 204 207 228 152 1 245 309 348 132 152 156 143 133 166 181 172 197 164 243 19 2 347 358 272
232 239 244 243 244 259 268 273 297 318 329 334 333 333 330 346 318 32 53 317 317 78 296 145 173 113 161 178 149 234 250 151 139 151 145 192 150 150 197 221 337 203 23 352 309 253 304
232 234 237 241 240 241 256 271 280 306 325 328 330 333 335 46 44 89 332 337 80 109 254 179 162 183 156 186 189 146 280 40 76 106 96 142 159 128 153 112 86 161 280 17 74 98 258
231 230 231 230 234 235 239 253 271 283 309 323 331 332 332 320 255 204 5 56 148 214 109 197 197 186 200 179 181 186 178 174 186 149 198 165 196 150 163 165 27 145 79 299 290 231 247
237 228 228 231 224 228 230 235 251 275 305 323 325 323 294 138 187 130 90 129 224 220 200 139 143 158 192 164 188 182 178 207 234 144 161 206 263 184 174 194 175 171 176 213 273 245 281
245 242 232 229 227 220 224 225 232 247 294 326 322 280 234 202 176 116 133 203 228 221 152 158 126 184 209 213 207 183 209 211 169 182 200 189 252 89 53 31 177 174 199 138 277 265 275
319 273 244 236 228 218 215 215 221 223 279 351 348 291 226 170 145 117 169 236 234 173 126 156 213 182 194 196 183 192 198 174 173 84 52 152 248 51 287 350 280 174 152 148 154 277 268
308 311 307 243 231 220 209 204 200 187 236 38 348 263 184 150 124 130 216 228 219 95 108 185 216 197 189 177 191 201 203 30 74 124 75 90 192 320 90 210 198 168 206 180 177 195 248
296 307 322 272 240 223 211 196 180 153 109 30 318 243 172 146 175 198 206 202 162 174 143 209 218 164 162 171 187 224 216 185 109 160 168 177 153 223 224 202 174 173 190 176 208 227 228
278 290 312 332 239 233 220 187 167 146 128 105 168 289 252 205 206 211 200 185 182 170 192 186 189 188 171 181 209 187 167 193 139 168 177 172 202 234 254 258 291 212 204 195 128 123 238
278 289 302 317 342 281 253 179 157 147 135 103 135 226 259 212 267 210 184 205 196 175 168 165 165 137 158 200 208 187 177 180 171 106 118 181 216 220 244 220 144 195 204 214 199 220 246
270 274 287 311 302 307 247 186 159 152 145 118 150 220 241 221 246 222 194 183 174 190 208 180 188 206 179 198 199 207 156 146 168 168 182 191 241 250 260 263 212 223 214 223 223 234 241
268 277 293 294 283 313 273 177 164 153 140 118 158 187 292 281 299 212 203 210 199 172 168 203 210 202 195 196 203 199 172 181 195 175 179 189 257 272 274 264 269 260 241 238 241 247 249
249 256 265 293 286 263 294 179 167 159 137 128 129 93 122 276 308 293 222 208 211 164 207 171 203 157 195 207 124 106 86 86 166 172 182 180 199 173 265 306 326 286 245 236 186 164 219
237 245 254 260 286 295 256 214 170 175 168 128 162 144 142 254 207 211 288 195 189 208 190 173 137 168 147 119 101 75 64 72 98 77 127 180 167 179 275 322 258 257 77 90 160 157 123
286 257 259 261 264 267 283 260 188 179 176 133 166 144 158 234 220 228 243 162 119 76 81 124 30 12 148 106 109 132 6 343 160 58 70 70 170 206 236 219 305 248 210 189 187 221 182
276 267 286 256 257 262 271 248 204 190 175 117 162 117 170 149 233 108 161 178 194 157 63 38 354 27 88 132 148 199 216 208 215 208 31 113 84 194 174 239 260 210 182 138 129 261 168
263 266 276 255 266 268 276 260 245 194 177 119 144 164 137 169 156 159 191 200 151 157 151 147 163 101 28 145 174 199 223 155 206 193 173 156 179 214 217 236 280 186 156 141 187 245 168
260 265 256 258 265 265 265 248 254 191 162 113 102 14 168 127 107 25 108 166 151 161 159 152 100 251 140 184 195 224 210 200 182 160 176 179 172 196 190 219 268 149 127 195 160 131 157
268 272 270 269 266 251 243 222 212 151 144 112 108 67 47 80 114 77 103 118 12 343 139 177 173 163 178 188 208 176 168 159 163 222 195 208 198 190 197 220 116 159 164 148 142 153 167